Location: Cella
(44.7333°N, 10.5667°E)
Time: 01:35:39
(UTC+00:00)

COSMOS 1867 COOLANT - Pass Details

Date: 22 September 2021
Orbit: 770 x 802 km, 65.0° (Epoch: 21 October)

Event Time Altitude Azimuth Distance (km) Brightness Sun altitude
Rises 19:29:06 0° 330° (NNW) 3,320 ? -23.9°
Reaches altitude 10° 19:32:16 10° 348° (NNW) 2,387 ? -24.4°
Maximum altitude 19:36:09 19° 33° (NNE) 1,824 ? -25.0°
Enters shadow 19:36:37 19° 39° (NE) 1,833 ? -25.1°
